This demonstration page uses our WeatherBlox Daily Observations layout. Learn more.

Left ArrowRight Arrow

Hourly Observations for September 21, 2018

Temp ( °F °C ) Dew Point ( °F °C ) Humidity (%) Winds ( mph kmh ) Pressure ( in mb ) Visibility ( mi km ) Precip ( " mm )
12:57 am 00:57 Clear 59 15 53 11.7 81 81 N 7 11 29.99 1016 10 16 0.00 0.00
1:57 am 01:57 Clear 57 13.9 52 11.1 83 83 NNW 7 11 30.04 1017 10 16 0.00 0.00
2:57 am 02:57 Clear 56 13.3 52 11.1 87 87 NW 9 15 30.05 1018 10 16 0.00 0.00
3:57 am 03:57 Clear 55 12.8 51 10.6 87 87 NNW 9 15 30.08 1019 10 16 0.00 0.00
4:57 am 04:57 Clear 54 12.2 50 10 87 87 NW 5 7 30.10 1019 10 16 0.00 0.00
5:57 am 05:57 Clear 54 12.2 49 9.4 83 83 NW 8 13 30.13 1020 10 16 0.00 0.00
6:57 am 06:57 Clear 52 11.1 48 8.9 86 86 NW 5 7 30.19 1022 10 16 0.00 0.00
7:57 am 07:57 Sunny 51 10.6 46 7.8 83 83 NW 5 7 30.22 1024 10 16 0.00 0.00
8:57 am 08:57 Sunny 54 12.2 46 7.8 75 75 N 14 22 30.24 1024 10 16 0.00 0.00
9:57 am 09:57 Sunny 57 13.9 45 7.2 64 64 N 22 35 30.25 1025 10 16 0.00 0.00
10:57 am 10:57 Sunny 60 15.6 43 6.1 53 53 NNW 21 33 30.26 1025 10 16 0.00 0.00
11:57 am 11:57 Sunny 63 17.2 42 5.6 47 47 N 17 28 30.27 1025 10 16 0.00 0.00
12:57 pm 12:57 Sunny 65 18.3 43 6.1 45 45 N 21 33 30.27 1025 10 16 0.00 0.00
1:57 pm 13:57 Sunny 66 18.9 40 4.4 39 39 N 16 26 30.28 1025 10 16 0.00 0.00
2:57 pm 14:57 Sunny 66 18.9 41 5 40 40 N 12 19 30.27 1025 10 16 0.00 0.00
3:57 pm 15:57 Sunny 66 18.9 41 5 40 40 N 10 17 30.26 1025 10 16 0.00 0.00
4:57 pm 16:57 Sunny 65 18.3 40 4.4 40 40 NNE 13 20 30.26 1025 10 16 0.00 0.00
5:57 pm 17:57 Sunny 64 17.8 41 5 43 43 NE 14 22 30.26 1025 10 16 0.00 0.00
6:57 pm 18:57 Sunny 61 16.1 41 5 48 48 ENE 8 13 30.27 1025 10 16 0.00 0.00
7:57 pm 19:57 Clear 55 12.8 42 5.6 62 62 E 7 11 30.30 1026 10 16 0.00 0.00
8:57 pm 20:57 Clear 50 10 42 5.6 74 74 ENE 6 9 30.33 1027 10 16 0.00 0.00
9:57 pm 21:57 Clear 51 10.6 43 6.1 74 74 NE 5 7 30.34 1028 10 16 0.00 0.00
10:57 pm 22:57 Clear 47 8.3 41 5 80 80 ENE 7 11 30.34 1028 10 16 0.00 0.00
11:57 pm 23:57 Clear 46 7.8 42 5.6 86 86 E 5 7 30.34 1027 10 16 0.00 0.00

Powered by AerisWeather